sat.trackr.live / text

‹ back to catalog

QIANFAN-131

NORAD 69077 · 2026-104E

PAYLOAD ACTIVE UNKNOWN

§ Identity

Operator
Country
PRC
Launch date
2026-05-12
Launch site
TAISC
Launch vehicle
Mass (kg)
RCS (m²)

External: N2YO · Heavens-Above · Gunter

§ Orbital elements

Epoch: 2026-05-25T04:29:04.178688Z

Period
101.37 min
Inclination
88.9867°
Eccentricity
0.0002724
Mean motion
14.20503190 rev/d
Perigee alt
821.7 km
Apogee alt
825.6 km
Semi-major
7,201.8 km
B*
3.1266e-5
RAAN
344.2469°
Arg perigee
168.7424°
Mean anomaly
191.3827°
Rev number
182

§ Raw data

QIANFAN-1311 69077U 26104E   26145.18685392  .00000082  00000+0  31266-4 0  99932 69077  88.9867 344.2469 0002724 168.7424 191.3827 14.20503190  1823

JSON: /api/v1/satellites/69077 · /tle

For live sub-satellite position, see the globe view (requires WebGL).

§ Visibility from observer

Set your observer location to see the next 7 days of passes ≥ 10°. The values pass through the URL so the page stays shareable.

No JS? Fill the form by hand. The geolocation button needs JavaScript.